This is the latest recevied weather packets stored in our database for station/object KA1STV. If no packets are shown the sender has not sent any weather packets the latest 1 day(s).
| Time | Temp. | Humidity | Pressure | Rain* | Wind** | Luminosity | Snow |
|---|---|---|---|---|---|---|---|
| 1778032950 | 17.78° C | 70% | 1008.5 hPa | 0 mm | 0.45 m/s, 31° | 0 W/m² | - |
| 1778032647 | 17.78° C | 70% | 1008.5 hPa | 0 mm | 0.89 m/s, 127° | 0 W/m² | - |
| 1778032345 | 17.78° C | 70% | 1008.4 hPa | 0 mm | 0 m/s | 0 W/m² | - |
| 1778032041 | 18.33° C | 69% | 1008.7 hPa | 0 mm | 0.45 m/s, 27° | 0 W/m² | - |
| 1778031737 | 18.33° C | 68% | 1008.3 hPa | 0 mm | 0.45 m/s, 261° | 0 W/m² | - |
| 1778031435 | 18.33° C | 68% | 1008.5 hPa | 0 mm | 0 m/s | 0 W/m² | - |
| 1778031132 | 18.33° C | 69% | 1008.2 hPa | 0 mm | 0.45 m/s, 327° | 0 W/m² | - |
| 1778030828 | 18.33° C | 68% | 1008.2 hPa | 0 mm | 0.45 m/s, 357° | 0 W/m² | - |
| 1778030525 | 18.33° C | 68% | 1008.2 hPa | 0 mm | 0 m/s | 0 W/m² | - |
| 1778030223 | 18.89° C | 68% | 1008 hPa | 0 mm | 0 m/s | 0 W/m² | - |
| 1778029918 | 18.89° C | 66% | 1007.8 hPa | 0 mm | 0 m/s | 0 W/m² | - |
| 1778029617 | 18.89° C | 66% | 1007.9 hPa | 0 mm | 0.89 m/s, 163° | 0 W/m² | - |
| 1778029314 | 19.44° C | 65% | 1007.8 hPa | 0 mm | 0.45 m/s, 61° | 0 W/m² | - |
| 1778029011 | 19.44° C | 65% | 1007.7 hPa | 0 mm | 0.45 m/s, 62° | 0 W/m² | - |
| 1778028708 | 19.44° C | 64% | 1007.6 hPa | 0 mm | 0.89 m/s, 185° | 0 W/m² | - |
| 1778028404 | 19.44° C | 64% | 1007.8 hPa | 0 mm | 0 m/s | 0 W/m² | - |
| 1778028101 | 20° C | 63% | 1007.6 hPa | 0 mm | 0 m/s | 0 W/m² | - |
| 1778027797 | 20° C | 63% | 1007.8 hPa | 0 mm | 0.45 m/s, 49° | 0 W/m² | - |
| 1778027494 | 20° C | 63% | 1007.6 hPa | 0 mm | 1.34 m/s, 148° | 0 W/m² | - |
| 1778027190 | 20° C | 62% | 1007.3 hPa | 0 mm | 0 m/s | 0 W/m² | - |
| 1778026886 | 20.56° C | 62% | 1007.6 hPa | 0 mm | 0.45 m/s, 313° | 0 W/m² | - |
| 1778026582 | 20.56° C | 62% | 1007.2 hPa | 0 mm | 0.45 m/s, 157° | 0 W/m² | - |
| 1778026279 | 20.56° C | 62% | 1007.3 hPa | 0 mm | 0 m/s | 0 W/m² | - |
| 1778025976 | 20.56° C | 61% | 1007.2 hPa | 0 mm | 0 m/s | 0 W/m² | - |
| 1778025674 | 20.56° C | 61% | 1007 hPa | 0 mm | 0.89 m/s, 250° | 0 W/m² | - |
* Rain latest hour (hover to see other rain measurements)
** Current wind speed in m/s (hover to see current wind gust speed)